This is the latest recevied weather packets stored in our database for station/object K2ATL. If no packets are shown the sender has not sent any weather packets the latest 10 day(s).
| Time | Temp. | Humidity | Pressure | Rain* | Wind** | Luminosity | Snow |
|---|---|---|---|---|---|---|---|
| 1787841837 | 20° C | 98% | 1103.1 hPa | 0 mm | - | 273 W/m² | - |
| 1787841534 | 20.56° C | 99% | 1103.1 hPa | 0 mm | - | 346 W/m² | - |
| 1787841232 | 21.11° C | 99% | 1103.1 hPa | 0 mm | - | 245 W/m² | - |
| 1787840927 | 20.56° C | 99% | 1103.1 hPa | 0 mm | - | 223 W/m² | - |
| 1787840623 | 21.11° C | 99% | 1103 hPa | 0 mm | - | 181 W/m² | - |
| 1787840318 | 21.11° C | 99% | 1103.2 hPa | 0 mm | - | 137 W/m² | - |
| 1787840018 | 20.56° C | 99% | 1102.8 hPa | 0 mm | - | 155 W/m² | - |
| 1787839718 | 20.56° C | 99% | 1103 hPa | 0 mm | - | 173 W/m² | - |
| 1787839413 | 20° C | 99% | 1102.8 hPa | 0 mm | - | 178 W/m² | - |
| 1787839113 | 20.56° C | 99% | 1102.7 hPa | 0 mm | - | 181 W/m² | - |
| 1787838811 | 20.56° C | 99% | 1102.8 hPa | 0 mm | - | 170 W/m² | - |
| 1787838507 | 20.56° C | 99% | 1102.7 hPa | 0 mm | - | 154 W/m² | - |
| 1787838206 | 20° C | 99% | 1102.7 hPa | 0 mm | - | 142 W/m² | - |
| 1787837905 | 20° C | 99% | 1102.4 hPa | 0 mm | - | 119 W/m² | - |
| 1787837604 | 20° C | 99% | 1102.5 hPa | 0 mm | - | 105 W/m² | - |
| 1787837298 | 20.56° C | 99% | 1102.4 hPa | 0 mm | - | 94 W/m² | - |
| 1787836994 | 20° C | 99% | 1102.4 hPa | 0 mm | - | 97 W/m² | - |
| 1787836689 | 19.44° C | 99% | 1102.4 hPa | 0 mm | - | 88 W/m² | - |
| 1787836388 | 19.44° C | 99% | 1102.3 hPa | 0 mm | - | 82 W/m² | - |
| 1787836084 | 20° C | 99% | 1102.2 hPa | 0 mm | - | 76 W/m² | - |
| 1787835781 | 20° C | 99% | 1102.2 hPa | 0 mm | - | 63 W/m² | - |
| 1787835479 | 20° C | 99% | 1102.4 hPa | 0 mm | - | 62 W/m² | - |
| 1787835174 | 19.44° C | 99% | 1102.3 hPa | 0 mm | - | 58 W/m² | - |
| 1787834875 | 19.44° C | 99% | 1102.4 hPa | 0 mm | - | 56 W/m² | - |
| 1787834574 | 20° C | 99% | 1102.4 hPa | 0 mm | - | 50 W/m² | - |
* Rain latest hour (hover to see other rain measurements)
** Current wind speed in m/s (hover to see current wind gust speed)